Temp
24 25 25 25 27 27 27 27 27 25 25 24 24 24 24 24 24 25 24 24 25 27
24 24 26 26 25 26 26 27 26 25 25 25 25 24 24 25 25 25 24 25 24 25
25 24 25 26 25 26 26 25 26 25 25 25 25 25 24 25 25 25 25 25 25 25
25 25 25 25 25 25 25 25 24 25 25 25 25 25 24 25 26 25 25 25 25 25
26 25 26 25 25 25 24 25 24 25 25 25 25 25 25 25 26 25 25 25 25 25
26 26 26 25 25 25 24 24 25 25 25 25 25 25 25 25 25 25 25 25 25 25
26 26 26 26 25 25 25 24 25 25 25 25 25 26 25 25 25 25 26 25 26 26
26 26 26 26 25 25 25 25 25 25 25 25 26 26 26 26 26 25 25 26 26 25
26 26 25 25 25 24 25 25 25 25 25 25 26 27 26 26 26 26 26 26 26 26
26 26 25 25 25 24 24 25 24 25 25 25 25 26 26 26 26 26 26 26 26 26
26 25 25 25 25 24 25 25 24 25 25 25 25 25 25 25 24 25 26 26 26 26
26 25 25 25 25 25 25 25 25 25 25 25 25 25 25 25 24 25 25 25 25 26
26 25 25 25 25 25 25 25 26 26 25 25 25 24 25 24 25 26 26 26 25 25
26 25 25 25 25 25 25 26 25 26 26 25 25 25 24 24 23 26 27 27 28 28
Height
831 836 840 844 845 848 850 853 857 860 862 864 866 868 870 872 873 874 875 877 877 876
825 830 833 838 842 845 847 849 853 856 858 860 863 865 867 869 870 872 873 874 875 876
817 822 828 833 836 840 843 846 848 851 854 856 859 861 863 865 867 869 870 871 872 873
809 815 821 826 830 834 838 841 843 846 849 851 854 857 859 861 863 865 867 869 869 870
801 808 813 818 823 828 832 835 838 841 844 847 850 852 855 857 858 861 863 864 866 866
791 798 804 810 816 821 825 829 832 835 838 841 844 847 849 852 854 856 858 859 861 862
780 787 794 801 807 813 817 822 825 829 832 835 838 841 843 846 848 850 852 854 855 857
771 778 785 791 797 803 809 813 817 822 825 828 831 833 836 839 842 845 846 847 849 850
763 769 775 782 788 794 800 804 809 813 817 821 823 825 828 832 836 839 840 841 842 844
753 759 765 773 780 785 791 796 800 804 808 811 814 817 820 824 829 832 834 835 836 837
744 751 758 764 770 777 783 788 792 796 800 803 805 809 812 816 821 824 826 828 829 830
734 742 750 757 762 769 775 780 784 788 791 794 796 800 803 808 813 816 817 819 821 822
730 735 740 748 754 760 766 770 775 779 782 785 788 791 794 799 805 807 808 810 811 812
723 729 735 742 748 753 758 762 767 771 774 777 779 782 784 788 794 797 799 800 801 802
Wind_Speed
30 28 26 22 19 19 17 15 13 14 15 14 12 11 9 9 9 8 8 8 8 8
31 31 28 25 22 21 18 16 15 16 17 16 15 14 12 11 10 9 9 9 10 10
33 32 31 26 25 22 21 19 17 18 19 18 17 17 15 13 12 11 11 12 10 11
35 33 30 29 27 25 22 21 20 19 18 19 18 18 17 16 14 13 13 13 13 13
36 34 32 30 29 25 24 24 23 21 19 21 21 19 20 19 18 17 16 15 15 15
39 37 35 32 30 28 26 25 24 23 22 22 22 21 21 21 20 19 18 18 18 18
39 38 37 35 32 30 29 27 27 26 25 24 23 23 22 21 21 20 20 20 20 20
37 36 35 34 33 32 30 29 28 27 28 25 24 25 25 24 23 22 22 22 21 22
35 36 37 35 34 33 32 32 29 29 29 28 27 28 29 27 24 25 24 24 24 23
37 37 37 35 34 34 33 31 30 29 28 30 30 30 32 33 30 26 26 25 25 25
37 36 34 34 35 33 32 31 29 29 29 30 31 32 35 35 32 30 29 27 27 27
38 36 34 34 33 32 31 30 30 29 29 30 31 32 35 35 29 30 32 32 31 31
33 34 34 33 33 33 31 31 30 30 30 31 31 31 35 36 29 29 31 30 32 36
33 33 32 31 31 31 30 28 30 28 28 30 31 30 33 36 32 30 29 30 29 29
Wind_Direction
206 211 215 217 220 218 223 221 221 218 218 214 213 211 214 215 218 210 207 215 224 241
207 210 215 219 222 224 224 227 226 225 223 222 222 215 213 221 219 214 217 220 225 232
209 212 216 218 221 224 225 225 228 225 224 224 220 216 213 221 221 216 219 222 217 232
211 213 216 218 221 225 224 220 222 223 220 218 215 215 215 220 226 220 223 227 227 232
207 210 213 216 219 221 221 218 222 220 217 217 219 218 219 221 226 225 229 229 230 236
209 209 211 213 216 216 218 218 221 222 218 218 218 219 222 224 227 229 232 232 232 235
204 205 208 210 212 214 214 217 219 219 222 222 221 221 223 226 230 231 233 235 233 233
204 202 203 206 207 211 212 217 220 219 220 223 223 223 224 226 230 232 234 237 235 236
199 200 201 201 203 205 209 214 216 219 220 221 225 227 226 226 230 234 235 239 242 244
198 200 200 200 201 204 206 211 214 217 219 221 223 226 228 229 229 235 236 238 242 245
196 200 200 199 200 202 206 209 211 217 219 220 224 226 228 230 229 234 239 240 241 244
196 195 198 200 200 203 204 207 211 217 219 220 225 228 232 231 228 236 240 242 244 245
197 196 196 198 198 200 202 207 211 216 219 222 225 228 230 231 228 235 240 244 245 246
198 198 198 198 198 198 202 206 211 215 219 222 225 227 233 231 223 232 237 242 245 247